Flag for Ukraine Weather past 2 weeks in Odesa, Ukraine

Now
66 °F

Clear.


Feels Like: 66 °F
Forecast: 62 / 87 °F
Wind: No wind

Location: Odesa Airport

Current Time: Aug 28, 2015 at 3:23:28 AM

Latest Report: Aug 28, 2015 at 3:00 AM


Visibility: 10 mi

Pressure: 30.07 "Hg

Humidity: 73%

Dew point: 57 °F

Location of OdesaLocation

Historic Weather in Odesa — Graph

°F

Odesa temperature yesterday

Maximum temperature yesterday: 86 °F (at 12:30 PM)
Minimum temperature yesterday: 59 °F (at 6:30 AM)
Average temperature yesterday: 74 °F

Past Weeks' High & Low Weather Summary

 TemperatureHumidityPressure
High91 °F (Aug 14, 3:00 PM)100% (Aug 26, 3:30 AM)30.18 "Hg (Aug 26, 3:30 AM)
Low57 °F (Aug 22, 6:00 AM)20% (Aug 24, 3:00 PM)29.74 "Hg (Aug 15, 6:00 PM)
Average73 °F54%29.97 "Hg
* Reported Aug 13 2:00 AM — Aug 28 2:00 AM, Odesa, Weather by CustomWeather, © 2015

Note: Actual official high and low records may vary slightly from our data, if they occured in-between our weather recording intervals... More about our weather records

Advertising

Odesa weather history for previous 24 hours

 ConditionsComfort  
Time TempWeatherWind HumidityBarometerVisibility
2:00 AM
Fri, Aug 28
68 °FClear.No wind69%30.09 "Hg10 mi
1:30 AM70 °FClear.No wind69%30.09 "Hg10 mi
1:00 AM70 °FClear.No wind69%30.09 "Hg10 mi
12:30 AM70 °FClear.No wind73%30.09 "Hg10 mi
12:00 AM72 °FClear.3 mph69%30.09 "Hg10 mi
11:30 PM
Thu, Aug 27
73 °FClear.3 mph65%30.09 "Hg10 mi
11:00 PM73 °FClear.No wind65%30.09 "Hg10 mi
10:30 PM73 °FClear.3 mph65%30.09 "Hg10 mi
10:00 PM75 °FClear.6 mph61%30.09 "Hg10 mi
9:30 PM75 °FClear.3 mph61%30.07 "Hg10 mi
9:00 PM75 °FClear.6 mph65%30.07 "Hg10 mi
8:30 PM75 °FSunny.6 mph65%30.07 "Hg10 mi
8:00 PM77 °FSunny.8 mph61%30.07 "Hg10 mi
7:30 PM77 °FSunny.6 mph57%30.07 "Hg10 mi
7:00 PM79 °FSunny.10 mph51%30.07 "Hg10 mi
6:30 PM81 °FSunny.13 mph48%30.07 "Hg10 mi
6:00 PM82 °FPartly sunny.8 mph51%30.07 "HgN/A
5:30 PM81 °FScattered clouds.10 mph62%30.07 "HgN/A
5:00 PM81 °FScattered clouds.13 mph54%30.07 "HgN/A
4:30 PM79 °FPassing clouds.13 mph61%30.07 "HgN/A
4:00 PM82 °FPassing clouds.8 mph48%30.07 "HgN/A
3:30 PM82 °FScattered clouds.13 mph51%30.07 "HgN/A
3:00 PM82 °FPassing clouds.10 mph48%30.07 "HgN/A
2:30 PM82 °FPassing clouds.10 mph51%30.09 "HgN/A
2:00 PM82 °FPassing clouds.10 mph51%30.09 "HgN/A
1:30 PM82 °FPassing clouds.8 mph48%30.09 "HgN/A
1:00 PM82 °FSunny.6 mph45%30.09 "Hg10 mi
12:30 PM86 °FPassing clouds.6 mph40%30.09 "HgN/A
12:00 PM84 °FSunny.No wind40%30.09 "Hg10 mi
11:30 AM84 °FSunny.3 mph43%30.09 "Hg10 mi
11:00 AM82 °FSunny.No wind40%30.09 "Hg10 mi
10:30 AM81 °FSunny.No wind42%30.09 "Hg10 mi
10:00 AM79 °FSunny.3 mph45%30.09 "Hg10 mi
9:30 AM75 °FSunny.6 mph50%30.09 "Hg10 mi
9:00 AM73 °FPassing clouds.3 mph53%30.09 "HgN/A
8:30 AM70 °FSunny.6 mph60%30.09 "Hg10 mi
8:00 AM68 °FSunny.1 mph64%30.09 "Hg10 mi
7:30 AM64 °FSunny.No wind78%30.09 "Hg10 mi
7:00 AM61 °FClear.No wind83%30.09 "Hg10 mi
6:30 AM59 °FClear.No wind88%30.07 "Hg10 mi
6:00 AM61 °FClear.No wind83%30.07 "Hg10 mi
5:30 AM61 °FClear.No wind83%30.07 "Hg10 mi
5:00 AM63 °FClear.No wind83%30.07 "Hg10 mi
4:30 AM64 °FClear.No wind78%30.07 "Hg10 mi
4:00 AM64 °FClear.No wind78%30.07 "Hg10 mi
3:30 AM64 °FClear.6 mph73%30.09 "Hg10 mi
3:00 AM66 °FClear.No wind73%30.09 "Hg10 mi
Weather by CustomWeather, © 2015

See weather overviewHow to use our weather pages